Date,TemperatureHighF,TemperatureAvgF,TemperatureLowF,DewpointHighF,DewpointAvgF,DewpointLowF,HumidityHigh,HumidityAvg,HumidityLow,PressureMaxIn,PressureMinIn,WindSpeedMaxMPH,WindSpeedAvgMPH,GustSpeedMaxMPH,PrecipitationSumIn
2013-3-1,48.0,38.4,30.8,31.0,27.9,25.8,83,67,50,30.37,30.26,16,6,22,0.00
2013-3-2,51.2,39.0,25.6,28.0,24.2,20.0,82,58,38,30.48,30.26,12,4,16,0.00
2013-3-3,68.2,52.4,35.5,38.0,31.7,25.7,74,48,29,30.26,29.70,22,10,26,0.00
2013-3-4,77.5,63.7,46.6,44.3,40.4,32.6,75,45,26,29.89,29.59,31,10,34,0.00
2013-3-5,51.9,45.0,39.2,39.5,23.8,15.0,78,45,27,30.42,29.89,35,11,40,0.00
2013-3-6,56.0,43.8,32.1,23.4,20.8,16.0,64,42,21,30.51,30.22,10,4,11,0.00
2013-3-7,68.7,54.8,40.7,32.8,26.6,21.9,50,35,20,30.25,30.09,21,8,29,0.00
2013-3-8,60.9,56.2,52.4,55.0,47.0,32.0,88,73,42,30.17,29.96,17,9,22,0.00
2013-3-9,65.2,58.8,55.3,62.0,56.3,53.6,96,92,81,29.96,29.64,18,8,24,1.10
2013-3-10,57.0,45.6,37.7,54.3,36.0,29.0,95,69,57,30.12,29.69,21,8,28,0.01
2013-3-11,56.9,42.5,29.8,29.7,23.9,15.0,85,53,23,30.16,30.03,12,4,18,0.00
2013-3-12,61.4,50.6,38.1,38.2,30.3,22.0,65,47,29,30.36,30.06,16,4,17,0.00
2013-3-13,62.8,52.6,40.4,35.0,30.2,22.9,62,44,30,30.50,30.34,9,4,13,0.00
2013-3-14,76.8,60.9,45.6,46.2,40.2,33.0,64,48,30,30.36,30.15,17,7,22,0.00
2013-3-15,80.9,67.1,53.5,51.0,46.7,43.9,76,50,30,30.15,29.82,22,10,26,0.00
2013-3-16,79.5,68.8,58.2,58.0,51.2,43.0,71,54,39,29.82,29.66,17,9,26,0.00
2013-3-17,66.8,53.3,46.3,55.1,43.7,38.4,78,70,61,29.81,29.67,12,5,19,0.00
2013-3-18,63.5,52.8,43.5,43.8,39.9,35.0,89,65,35,30.05,29.66,15,6,21,0.00
2013-3-19,60.6,52.8,42.0,38.1,33.9,26.5,78,51,31,30.19,30.01,16,5,20,0.00
2013-3-20,61.9,52.5,40.9,37.1,29.8,25.6,63,44,25,30.36,30.06,11,4,13,0.00
2013-3-21,62.8,51.6,46.0,45.7,36.9,30.0,76,58,47,30.06,29.58,20,10,25,0.02
2013-3-22,47.4,43.9,39.3,42.0,39.0,36.3,90,83,69,29.92,29.63,19,8,25,0.00
2013-3-23,47.8,44.7,41.8,45.1,42.7,39.0,95,92,87,29.92,29.70,14,5,26,0.08
2013-3-24,47.7,40.0,34.4,38.8,25.5,16.0,89,59,30,30.25,29.89,25,12,34,0.00
2013-3-25,46.5,38.6,30.0,22.4,16.9,12.0,67,43,27,30.45,30.24,17,8,26,0.00
2013-3-26,54.9,41.5,28.5,27.2,19.4,14.7,64,43,27,30.54,30.32,9,3,10,0.00
2013-3-27,67.3,53.4,38.8,41.0,32.1,24.0,59,45,31,30.33,30.09,25,10,36,0.00
2013-3-28,68.0,59.9,49.1,55.5,49.6,40.7,83,69,55,30.20,30.07,20,9,26,0.00
2013-3-29,73.3,65.2,59.1,58.3,56.7,54.9,88,75,57,30.15,30.02,19,8,28,0.05
2013-3-30,77.0,66.1,55.7,63.0,58.8,53.5,94,78,59,30.03,29.86,26,7,39,0.12
2013-3-31,70.5,64.2,55.8,61.0,51.2,42.8,92,65,39,30.01,29.80,19,5,40,0.45